N6GIW Weather Reports


Display with metric or nautical units.
time (UTC)temp
F
wind
direction
speed
MPH
gust
MPH
rain 1hr
in
rain 24hr
in
rain mn
in
humidity
%
barometer
mb
20260510215504 97 136 8.0 16.0 0.00 0.00 0.00 10 1022.0
20260510215003 96 83 3.0 8.0 0.00 0.00 0.00 10 1022.1
20260510214503 97 134 4.0 14.0 0.00 0.00 0.00 9 1022.1
20260510214003 96 110 5.0 12.0 0.00 0.00 0.00 10 1022.2
20260510213502 95 77 2.0 8.0 0.00 0.00 0.00 10 1022.4
20260510213003 95 82 5.0 9.0 0.00 0.00 0.00 10 1022.4
20260510212503 95 145 9.0 15.0 0.00 0.00 0.00 10 1022.2
20260510212003 95 178 12.0 20.0 0.00 0.00 0.00 10 1022.3
20260510211504 95 170 7.0 14.0 0.00 0.00 0.00 10 1022.3
20260510211003 95 143 9.0 17.0 0.00 0.00 0.00 10 1022.3
20260510210503 96 154 6.0 12.0 0.00 0.00 0.00 10 1022.6
20260510210003 96 111 7.0 12.0 0.00 0.00 0.00 10 1022.6
20260510205503 95 96 1.0 6.0 0.00 0.00 0.00 10 1022.7
20260510205004 96 128 3.0 9.0 0.00 0.00 0.00 10 1022.8
20260510204002 95 121 9.0 12.0 0.00 0.00 0.00 10 1022.6
20260510203503 95 190 3.0 7.0 0.00 0.00 0.00 10 1022.7
20260510203003 96 140 5.0 12.0 0.00 0.00 0.00 10 1022.7
20260510202503 95 119 9.0 14.0 0.00 0.00 0.00 10 1022.7
20260510202003 94 132 2.0 8.0 0.00 0.00 0.00 10 1022.8
20260510201503 94 147 6.0 12.0 0.00 0.00 0.00 10 1023.0
20260510201003 94 133 7.0 10.0 0.00 0.00 0.00 11 1022.9
20260510200502 94 219 5.0 12.0 0.00 0.00 0.00 11 1023.0
20260510200004 95 90 7.0 12.0 0.00 0.00 0.00 10 1023.1
20260510195503 95 96 5.0 10.0 0.00 0.00 0.00 11 1023.0
20260510195003 94 88 4.0 12.0 0.00 0.00 0.00 11 1023.0
20260510194004 95 112 5.0 9.0 0.00 0.00 0.00 10 1023.0
20260510193503 94 115 3.0 9.0 0.00 0.00 0.00 12 1023.1
20260510193003 94 95 2.0 12.0 0.00 0.00 0.00 11 1023.2
20260510192503 94 102 7.0 15.0 0.00 0.00 0.00 12 1023.2
20260510192003 93 91 5.0 12.0 0.00 0.00 0.00 12 1023.2
20260510191004 93 72 2.0 8.0 0.00 0.00 0.00 12 1023.3
20260510190504 93 108 1.0 9.0 0.00 0.00 0.00 12 1023.4
20260510190003 93 93 4.0 7.0 0.00 0.00 0.00 13 1023.3
20260510185505 92 63 2.0 8.0 0.00 0.00 0.00 12 1023.3
20260510185003 92 100 4.0 9.0 0.00 0.00 0.00 13 1023.3
20260510184503 92 58 3.0 9.0 0.00 0.00 0.00 13 1023.3
20260510184004 92 104 3.0 6.0 0.00 0.00 0.00 13 1023.3
20260510183503 92 78 1.0 7.0 0.00 0.00 0.00 13 1023.5
20260510182503 91 114 2.0 8.0 0.00 0.00 0.00 13 1023.6
20260510182003 91 93 5.0 9.0 0.00 0.00 0.00 13 1023.5
20260510181503 91 53 5.0 9.0 0.00 0.00 0.00 14 1023.4
20260510181004 90 71 3.0 9.0 0.00 0.00 0.00 14 1023.4
20260510180504 90 6 1.0 6.0 0.00 0.00 0.00 14 1023.5
20260510180003 91 89 2.0 9.0 0.00 0.00 0.00 14 1023.5
20260510175004 90 82 3.0 7.0 0.00 0.00 0.00 14 1023.4
20260510174504 90 102 1.0 3.0 0.00 0.00 0.00 14 1023.4
20260510174004 89 79 1.0 3.0 0.00 0.00 0.00 15 1023.4
20260510173503 89 32 1.0 6.0 0.00 0.00 0.00 14 1023.3
20260510173004 89 63 3.0 7.0 0.00 0.00 0.00 15 1023.3
20260510172503 88 51 3.0 8.0 0.00 0.00 0.00 15 1023.2
20260510172004 88 42 2.0 9.0 0.00 0.00 0.00 15 1023.3
20260510171504 87 47 2.0 8.0 0.00 0.00 0.00 15 1023.2
20260510171003 87 50 1.0 10.0 0.00 0.00 0.00 15 1023.2
20260510170003 87 57 2.0 10.0 0.00 0.00 0.00 15 1023.0
20260510165504 87 31 5.0 10.0 0.00 0.00 0.00 14 1023.0
20260510165003 87 12 5.0 10.0 0.00 0.00 0.00 14 1023.1
20260510164504 86 14 7.0 12.0 0.00 0.00 0.00 14 1023.1
20260510164003 86 14 5.0 10.0 0.00 0.00 0.00 14 1023.0
20260510163503 86 34 4.0 12.0 0.00 0.00 0.00 15 1022.9
20260510163004 87 82 2.0 7.0 0.00 0.00 0.00 16 1023.0
20260510162503 86 87 2.0 7.0 0.00 0.00 0.00 16 1022.7
20260510162003 86 83 2.0 3.0 0.00 0.00 0.00 16 1022.6
20260510161503 86 79 3.0 5.0 0.00 0.00 0.00 16 1022.5
20260510161003 86 44 3.0 7.0 0.00 0.00 0.00 15 1022.5
20260510160004 86 74 1.0 3.0 0.00 0.00 0.00 14 1022.4
20260510155003 86 45 2.0 3.0 0.00 0.00 0.00 14 1022.2
20260510154503 87 81 1.0 3.0 0.00 0.00 0.00 13 1022.2
20260510154003 87 76 1.0 2.0 0.00 0.00 0.00 14 1022.1
20260510153503 87 75 0.0 2.0 0.00 0.00 0.00 13 1022.1
20260510152504 86 95 1.0 3.0 0.00 0.00 0.00 13 1022.1
20260510152003 86 96 2.0 3.0 0.00 0.00 0.00 14 1022.1
20260510151503 87 116 2.0 3.0 0.00 0.00 0.00 14 1022.0
20260510151003 87 155 0.0 2.0 0.00 0.00 0.00 14 1022.0
20260510150503 86 189 0.0 2.0 0.00 0.00 0.00 14 1021.9
20260510150003 86 231 0.0 0.0 0.00 0.00 0.00 14 1022.0
20260510145503 85 232 0.0 0.0 0.00 0.00 0.00 15 1022.0
20260510145005 83 232 0.0 0.0 0.00 0.00 0.00 15 1022.0
20260510144003 81 232 0.0 0.0 0.00 0.00 0.00 16 1021.9
20260510143503 80 232 0.0 0.0 0.00 0.00 0.00 16 1021.8
20260510143005 80 232 0.0 0.0 0.00 0.00 0.00 17 1021.8
20260510142503 79 232 0.0 1.0 0.00 0.00 0.00 17 1021.7
20260510142004 78 232 0.0 1.0 0.00 0.00 0.00 17 1021.8
20260510141505 77 232 0.0 1.0 0.00 0.00 0.00 18 1021.7
20260510141003 76 232 0.0 2.0 0.00 0.00 0.00 18 1021.7
20260510140003 74 230 1.0 2.0 0.00 0.00 0.00 19 1021.4
20260510135505 73 229 0.0 3.0 0.00 0.00 0.00 19 1021.3
20260510135004 72 229 1.0 3.0 0.00 0.00 0.00 20 1021.2
20260510134503 71 240 1.0 2.0 0.00 0.00 0.00 20 1021.2
20260510132504 68 241 1.0 3.0 0.00 0.00 0.00 21 1021.0
20260510132004 67 239 1.0 2.0 0.00 0.00 0.00 22 1021.0
20260510131503 67 238 0.0 0.0 0.00 0.00 0.00 23 1021.0
20260510131004 66 238 0.0 1.0 0.00 0.00 0.00 23 1021.0
20260510130505 66 238 0.0 2.0 0.00 0.00 0.00 23 1020.9
20260510130005 66 238 0.0 2.0 0.00 0.00 0.00 22 1020.8
20260510125504 66 241 1.0 2.0 0.00 0.00 0.00 22 1020.7
20260510124503 65 240 0.0 1.0 0.00 0.00 0.00 23 1020.7
20260510124004 65 240 1.0 2.0 0.00 0.00 0.00 22 1020.7
20260510123504 65 240 0.0 2.0 0.00 0.00 0.00 22 1020.6
20260510123003 66 240 1.0 2.0 0.00 0.00 0.00 22 1020.6
20260510122503 67 238 0.0 2.0 0.00 0.00 0.00 22 1020.6
20260510122005 67 238 2.0 3.0 0.00 0.00 0.00 22 1020.6
20260510121503 67 237 0.0 2.0 0.00 0.00 0.00 22 1020.6
20260510121003 66 239 1.0 3.0 0.00 0.00 0.00 23 1020.4
20260510120504 65 241 1.0 2.0 0.00 0.00 0.00 23 1020.5
20260510120003 65 242 0.0 1.0 0.00 0.00 0.00 22 1020.5
20260510115504 65 242 1.0 2.0 0.00 0.00 0.00 22 1020.4
20260510115004 65 242 0.0 0.0 0.00 0.00 0.00 23 1020.4
20260510114503 65 242 0.0 0.0 0.00 0.00 0.00 23 1020.4
20260510114004 65 242 0.0 0.0 0.00 0.00 0.00 22 1020.4
20260510113004 65 243 0.0 2.0 0.00 0.00 0.00 22 1020.4
20260510112003 65 248 1.0 2.0 0.00 0.00 0.00 21 1020.3
20260510111504 65 248 0.0 1.0 0.00 0.00 0.00 20 1020.3
20260510111003 65 248 0.0 1.0 0.00 0.00 0.00 20 1020.4
20260510110504 65 249 1.0 3.0 0.00 0.00 0.00 19 1020.4
20260510105503 66 250 2.0 3.0 0.00 0.00 0.00 18 1020.4
20260510105003 66 244 2.0 3.0 0.00 0.00 0.00 18 1020.4
20260510104503 66 244 1.0 2.0 0.00 0.00 0.00 17 1020.5
20260510104004 67 244 0.0 2.0 0.00 0.00 0.00 17 1020.4
20260510103503 67 244 2.0 3.0 0.00 0.00 0.00 17 1020.4
20260510103003 68 236 2.0 3.0 0.00 0.00 0.00 17 1020.5
20260510102503 68 236 0.0 3.0 0.00 0.00 0.00 17 1020.5
20260510102003 67 236 2.0 3.0 0.00 0.00 0.00 17 1020.5
20260510101504 67 242 2.0 3.0 0.00 0.00 0.00 17 1020.6
20260510101003 68 241 3.0 5.0 0.00 0.00 0.00 17 1020.6
20260510100503 68 248 2.0 3.0 0.00 0.00 0.00 16 1020.6
20260510100004 68 249 2.0 3.0 0.00 0.00 0.00 16 1020.6
20260510095503 68 241 2.0 3.0 0.00 0.00 0.00 16 1020.7
20260510095004 68 247 2.0 3.0 0.00 0.00 0.00 16 1020.7
20260510094503 68 244 2.0 3.0 0.00 0.00 0.00 16 1020.7
20260510094003 68 248 3.0 3.0 0.00 0.00 0.00 16 1020.7
20260510093503 68 242 2.0 3.0 0.00 0.00 0.00 16 1020.8
20260510093004 68 238 2.0 3.0 0.00 0.00 0.00 16 1020.8
20260510092504 69 238 1.0 2.0 0.00 0.00 0.00 16 1020.6
20260510092004 69 238 1.0 3.0 0.00 0.00 0.00 15 1020.6
20260510091504 69 248 3.0 3.0 0.00 0.00 0.00 15 1020.6
20260510090504 69 230 0.0 2.0 0.00 0.00 0.00 16 1020.6
20260510090004 69 230 1.0 3.0 0.00 0.00 0.00 16 1020.5
20260510085503 69 234 0.0 2.0 0.00 0.00 0.00 16 1020.5
20260510085003 69 238 1.0 3.0 0.00 0.00 0.00 16 1020.4
20260510084503 68 240 2.0 3.0 0.00 0.00 0.00 16 1020.4
20260510084004 68 207 0.0 1.0 0.00 0.00 0.00 16 1020.6
20260510083504 69 207 0.0 1.0 0.00 0.00 0.00 15 1020.6
20260510083004 70 207 0.0 1.0 0.00 0.00 0.00 15 1020.6
20260510082504 71 207 0.0 2.0 0.00 0.00 0.00 14 1020.6
20260510082004 72 207 2.0 3.0 0.00 0.00 0.00 14 1020.5
20260510081503 72 209 1.0 3.0 0.00 0.00 0.00 14 1020.6
20260510081003 72 235 0.0 3.0 0.00 0.00 0.00 14 1020.5
20260510080504 71 226 1.0 3.0 0.00 0.00 0.00 15 1020.5
20260510075508 71 209 0.0 0.0 0.00 0.00 0.00 15 1020.5
20260510075020 71 206 0.0 0.0 0.00 0.00 0.00 15 1020.6
20260510074003 71 221 0.0 0.0 0.00 0.00 0.00 14 1020.5
20260510073004 72 252 0.0 0.0 0.00 0.00 0.00 14 1020.6
20260510072504 71 251 0.0 0.0 0.00 0.00 0.00 15 1020.5
20260510072004 71 251 0.0 0.0 0.00 0.00 0.00 15 1020.4
20260510071505 70 252 0.0 0.0 0.00 0.00 0.00 15 1020.4
20260510071004 70 239 0.0 0.0 0.00 0.00 0.00 15 1020.4
20260510070503 71 192 0.0 0.0 0.00 0.00 0.00 14 1020.4
20260510070004 72 192 0.0 0.0 0.00 0.00 0.00 14 1020.3
20260510065504 72 192 0.0 0.0 0.00 0.00 0.00 14 1020.3
20260510065004 72 199 0.0 0.0 0.00 0.00 0.00 14 1020.4
20260510064504 72 200 0.0 0.0 0.00 0.00 0.00 14 1020.3
20260510063504 72 215 0.0 0.0 0.00 0.00 0.00 13 1020.3
20260510062503 72 232 0.0 0.0 0.00 0.00 0.00 13 1020.3
20260510061004 73 235 0.0 0.0 0.00 0.00 0.00 13 1020.2
20260510060503 73 235 0.0 0.0 0.00 0.00 0.00 13 1020.2
20260510060004 73 232 0.0 0.0 0.00 0.00 0.00 13 1020.3
20260510055004 73 223 0.0 0.0 0.00 0.00 0.00 14 1020.3
20260510054503 73 223 0.0 0.0 0.00 0.00 0.00 14 1020.4
20260510054003 73 224 0.0 0.0 0.00 0.00 0.00 14 1020.4
20260510053503 72 231 0.0 0.0 0.00 0.00 0.00 14 1020.4
20260510053004 72 232 0.0 0.0 0.00 0.00 0.00 14 1020.4
20260510052503 73 232 0.0 0.0 0.00 0.00 0.00 14 1020.3
20260510052004 73 232 0.0 0.0 0.00 0.00 0.00 14 1020.3
20260510051503 74 232 0.0 0.0 0.00 0.00 0.00 14 1020.3
20260510051003 75 232 0.0 0.0 0.00 0.00 0.00 13 1020.3
20260510050504 75 232 0.0 0.0 0.00 0.00 0.00 13 1020.2
20260510050005 75 217 0.0 0.0 0.00 0.00 0.00 13 1020.1
20260510045503 75 226 0.0 0.0 0.00 0.00 0.00 14 1020.2
20260510045003 75 229 0.0 0.0 0.00 0.00 0.00 15 1020.2
20260510044504 75 227 0.0 0.0 0.00 0.00 0.00 17 1020.1
20260510044003 75 226 0.0 0.0 0.00 0.00 0.00 18 1020.0
20260510043503 75 228 0.0 0.0 0.00 0.00 0.00 19 1020.1
20260510043004 75 224 0.0 0.0 0.00 0.00 0.00 19 1020.0
20260510042504 75 222 0.0 0.0 0.00 0.00 0.00 21 1020.0
20260510042004 76 223 0.0 0.0 0.00 0.00 0.00 21 1019.8
20260510041004 77 239 0.0 0.0 0.00 0.00 0.00 23 1019.8
20260510040503 77 234 0.0 0.0 0.00 0.00 0.00 23 1019.7
20260510035003 79 239 0.0 0.0 0.00 0.00 0.00 22 1019.7
20260510034505 80 247 0.0 0.0 0.00 0.00 0.00 22 1019.6
20260510034003 80 237 0.0 0.0 0.00 0.00 0.00 22 1019.6
20260510033503 80 248 0.0 0.0 0.00 0.00 0.00 22 1019.5
20260510033004 79 229 0.0 0.0 0.00 0.00 0.00 21 1019.4
20260510032504 80 250 0.0 0.0 0.00 0.00 0.00 21 1019.4
20260510032004 80 254 0.0 0.0 0.00 0.00 0.00 22 1019.4
20260510031504 80 293 0.0 0.0 0.00 0.00 0.00 22 1019.3
20260510031004 80 247 0.0 0.0 0.00 0.00 0.00 21 1019.3
20260510030504 81 233 0.0 0.0 0.00 0.00 0.00 21 1019.1
20260510030003 81 232 0.0 0.0 0.00 0.00 0.00 21 1019.2
20260510025504 81 243 0.0 0.0 0.00 0.00 0.00 21 1019.1
20260510025003 81 224 0.0 0.0 0.00 0.00 0.00 21 1019.0
20260510024505 82 232 0.0 0.0 0.00 0.00 0.00 21 1019.0
20260510023504 83 229 2.0 9.0 0.00 0.00 0.00 20 1019.0
20260510023004 83 230 5.0 9.0 0.00 0.00 0.00 20 1019.0
20260510022503 84 229 5.0 9.0 0.00 0.00 0.00 19 1018.9
20260510022004 85 221 5.0 9.0 0.00 0.00 0.00 18 1019.0
20260510021503 85 230 6.0 10.0 0.00 0.00 0.00 18 1018.9
20260510021003 86 224 6.0 10.0 0.00 0.00 0.00 17 1018.7
20260510020504 86 216 7.0 12.0 0.00 0.00 0.00 17 1018.7
20260510020005 86 214 7.0 12.0 0.00 0.00 0.00 16 1018.8
20260510015503 87 203 8.0 12.0 0.00 0.00 0.00 16 1018.7
20260510015004 87 208 7.0 12.0 0.00 0.00 0.00 16 1018.8
20260510014503 88 223 9.0 13.0 0.00 0.00 0.00 14 1018.7
20260510014004 88 226 8.0 14.0 0.00 0.00 0.00 13 1018.8
20260510013503 89 216 9.0 14.0 0.00 0.00 0.00 12 1018.7
20260510013004 89 217 7.0 13.0 0.00 0.00 0.00 12 1018.6
20260510012504 89 214 7.0 13.0 0.00 0.00 0.00 12 1018.6
20260510012004 89 209 8.0 14.0 0.00 0.00 0.00 13 1018.8
20260510011503 90 208 8.0 12.0 0.00 0.00 0.00 13 1018.8
20260510010504 90 221 9.0 14.0 0.00 0.00 0.00 13 1018.8
20260510010004 90 203 10.0 14.0 0.00 0.00 0.00 13 1018.7
20260510005503 91 202 8.0 14.0 0.00 0.00 0.00 12 1018.7
20260510005003 91 198 8.0 14.0 0.00 0.00 0.00 11 1018.8
20260510004503 91 209 8.0 14.0 0.00 0.00 0.00 11 1018.7
20260510004003 91 196 8.0 16.0 0.00 0.00 0.00 11 1018.8
20260510003504 92 190 7.0 13.0 0.00 0.00 0.00 11 1018.8
20260510003004 92 214 8.0 12.0 0.00 0.00 0.00 11 1018.8
20260510002003 92 189 9.0 18.0 0.00 0.00 0.00 11 1018.8
20260510001504 92 191 9.0 15.0 0.00 0.00 0.00 11 1018.8
20260510000503 92 199 10.0 16.0 0.00 0.00 0.00 11 1018.8
20260510000003 93 187 6.0 12.0 0.00 0.00 0.00 10 1018.8
20260509235504 92 170 7.0 12.0 0.00 0.00 0.00 10 1018.8
20260509235004 92 183 10.0 14.0 0.00 0.00 0.00 10 1018.8
20260509234503 93 170 9.0 13.0 0.00 0.00 0.00 10 1018.9
20260509234003 92 177 10.0 18.0 0.00 0.00 0.00 9 1018.9
20260509233504 92 203 11.0 16.0 0.00 0.00 0.00 10 1019.0
20260509233004 93 210 10.0 16.0 0.00 0.00 0.00 10 1018.9
20260509232503 93 199 9.0 20.0 0.00 0.00 0.00 9 1019.0
20260509232004 93 172 9.0 16.0 0.00 0.00 0.00 9 1019.1
20260509231503 93 234 8.0 17.0 0.00 0.00 0.00 9 1019.2
20260509231004 93 156 7.0 12.0 0.00 0.00 0.00 9 1019.2
20260509230503 93 187 8.0 20.0 0.00 0.00 0.00 9 1019.2
20260509230003 93 165 13.0 17.0 0.00 0.00 0.00 8 1019.3
20260509225004 93 185 9.0 14.0 0.00 0.00 0.00 9 1019.3
20260509224503 93 165 7.0 12.0 0.00 0.00 0.00 8 1019.5
20260509224004 93 190 7.0 12.0 0.00 0.00 0.00 8 1019.5
20260509223503 93 180 8.0 13.0 0.00 0.00 0.00 7 1019.6
20260509223004 93 180 9.0 17.0 0.00 0.00 0.00 7 1019.6
20260509222503 93 157 7.0 12.0 0.00 0.00 0.00 7 1019.8
20260509222003 93 175 9.0 12.0 0.00 0.00 0.00 8 1019.8
20260509221504 94 189 10.0 16.0 0.00 0.00 0.00 7 1019.8
20260509220504 94 188 7.0 20.0 0.00 0.00 0.00 7 1019.7
20260509220003 93 234 9.0 16.0 0.00 0.00 0.00 7 1019.9